Location: G�ppingen
(48.7089°N, 9.6563°E)
Time: 21:45:13
(UTC+01:00)

Amateur Radio Satellites - All Passes

Search period start: 20 November 2017 21:15
Search period end: 21 November 2017 21:15
Location: G�ppingen, 48.7089°N, 9.6563°E

Satellite Date Start Highest point End Downlink Frequencies (MHz)
Time Altitude Azimuth
Max Valier Satellite 20 Nov 21:18:27 21:22:07 81° 259° (W) 21:25:47 145.860
EO-88 20 Nov 21:18:50 21:22:26 72° 74° (ENE) 21:26:04 145.990 - 145.960
nSIGHT-1 20 Nov 21:19:47 21:22:19 22° 141° (SE) 21:24:51 .
Oscar 11 20 Nov 21:29:07 21:31:13 13° 272° (W) 21:33:18 .
DELFI C3 20 Nov 21:36:26 21:40:08 38° 263° (W) 21:43:53 145.870
STRAND 1 20 Nov 21:39:13 21:42:47 19° 303° (WNW) 21:46:21 437.568
SO-50 20 Nov 21:40:33 21:44:01 22° 114° (ESE) 21:47:31 436.795
LO-87 20 Nov 21:46:47 21:49:37 22° 66° (ENE) 21:52:27 145.935 - 145.965
UNISAT 6 20 Nov 21:51:12 21:55:15 39° 97° (E) 21:59:15 437.425
TIGRISAT 20 Nov 21:55:47 21:59:50 40° 98° (E) 22:03:50 435.000
O/OREOS (USA 219) 20 Nov 21:56:39 22:00:03 20° 47° (NE) 22:03:24 437.305
FO-29 20 Nov 21:59:28 22:07:09 57° 293° (WNW) 22:14:32 435.910
ISS 20 Nov 22:00:28 22:03:31 37° 147° (SSE) 22:06:34 437.550
NO-84 20 Nov 22:04:26 22:08:41 71° 214° (SW) 22:12:56 435.350 FM
SPROUT 20 Nov 22:24:22 22:26:36 14° 58° (ENE) 22:28:50 437.525
ESTCUBE 1 20 Nov 22:30:40 22:35:01 53° 71° (ENE) 22:39:24 437.505/2401.250
RS-15 20 Nov 22:38:12 22:49:40 42° 341° (NNW) 23:00:52 29.354- 29.394
nSIGHT-1 20 Nov 22:55:02 22:58:16 85° 343° (NNW) 23:01:29 .
VELOX 1 20 Nov 22:55:55 22:59:07 20° 61° (ENE) 23:02:20 145.980
PRISM 20 Nov 23:05:15 23:09:27 82° 106° (ESE) 23:13:37 437.425
LO-87 20 Nov 23:19:37 23:22:52 31° 263° (W) 23:26:08 145.935 - 145.965
SO-50 20 Nov 23:19:42 23:24:07 57° 314° (NW) 23:28:37 436.795
DUCHIFAT 1 20 Nov 23:19:51 23:21:28 12° 88° (E) 23:23:05 145.980
EO-79 20 Nov 23:25:13 23:28:05 18° 91° (E) 23:30:55 145.935-145.965
UNISAT 6 20 Nov 23:28:19 23:31:47 24° 296° (WNW) 23:35:12 437.425
NANOSAT C BR1 20 Nov 23:29:02 23:31:48 17° 91° (E) 23:34:35 145.865
TIGRISAT 20 Nov 23:32:54 23:36:20 24° 296° (WNW) 23:39:44 435.000
PCSat 20 Nov 23:34:08 23:37:16 16° 104° (ESE) 23:40:23 145.827
O/OREOS (USA 219) 20 Nov 23:35:24 23:39:56 68° 248° (WSW) 23:44:26 437.305
ISS 20 Nov 23:36:39 23:39:54 63° 346° (NNW) 23:43:10 437.550
POLYITAN 1 20 Nov 23:39:53 23:43:20 24° 94° (E) 23:46:46 437.675
NO-84 20 Nov 23:42:56 23:45:27 15° 233° (SW) 23:47:56 435.350 FM
DX 1 20 Nov 23:44:23 23:47:03 16° 58° (ENE) 23:49:43 434.975-435.025
FO-29 20 Nov 23:46:00 23:50:35 17° 315° (NW) 23:55:06 435.910
50 SAT 20 Nov 23:48:55 23:50:17 12° 62° (ENE) 23:51:39 437.505
AIST 2D 20 Nov 23:50:09 23:53:42 84° 285° (WNW) 23:57:14 435.315
SPROUT 20 Nov 23:57:36 00:01:54 80° 255° (WSW) 00:06:13 437.525
QB50P2 21 Nov 00:02:44 00:06:48 45° 99° (E) 00:10:50 145.880/145.840
ESTCUBE 1 21 Nov 00:08:55 00:12:08 19° 269° (W) 00:15:22 437.505/2401.250
BUGSAT 1 21 Nov 00:15:33 00:16:53 11° 88° (E) 00:18:13 437.445
UKube-1 21 Nov 00:26:55 00:30:27 25° 63° (ENE) 00:34:00 .
VELOX 1 21 Nov 00:30:49 00:35:10 56° 259° (W) 00:39:35 145.980
nSIGHT-1 21 Nov 00:31:35 00:34:43 47° 360° (N) 00:37:49 .
PRISM 21 Nov 00:42:08 00:44:06 13° 303° (WNW) 00:46:05 437.425
DUCHIFAT 1 21 Nov 00:53:29 00:57:40 76° 287° (WNW) 01:01:49 145.980
RS-15 21 Nov 00:54:42 01:05:58 40° 15° (NNE) 01:16:45 29.354- 29.394
EO-79 21 Nov 01:00:03 01:04:08 51° 289° (WNW) 01:08:12 145.935-145.965
SO-50 21 Nov 01:02:35 01:05:31 17° 336° (NNW) 01:08:31 436.795
NANOSAT C BR1 21 Nov 01:03:45 01:07:50 52° 289° (WNW) 01:11:53 145.865
Oscar 19 21 Nov 01:07:13 01:11:27 25° 93° (E) 01:15:39 437.125/150
BEESAT 21 Nov 01:07:47 01:10:02 13° 54° (NE) 01:12:15 436.000
ISS 21 Nov 01:13:27 01:16:40 50° 6° (N) 01:19:52 437.550
PCSat 21 Nov 01:14:27 01:19:52 88° 131° (SE) 01:25:21 145.827
POLYITAN 1 21 Nov 01:15:21 01:19:13 37° 292° (WNW) 01:23:03 437.675
ITUPSAT 1 21 Nov 01:16:24 01:19:09 15° 56° (NE) 01:21:54 437.325
DX 1 21 Nov 01:18:21 01:22:43 72° 257° (WSW) 01:27:07 434.975-435.025
50 SAT 21 Nov 01:18:48 01:21:58 51° 259° (WSW) 01:25:11 437.505
Gurwin Techsat 1B 21 Nov 01:26:59 01:31:31 28° 93° (E) 01:36:01 435.225
MOZHAYETS 4 21 Nov 01:33:57 01:37:34 24° 63° (ENE) 01:41:12
QB50P2 21 Nov 01:39:08 01:42:19 21° 297° (WNW) 01:45:28 145.880/145.840
BUGSAT 1 21 Nov 01:48:43 01:52:47 75° 286° (WNW) 01:56:47 437.445
UKube-1 21 Nov 02:02:12 02:06:17 40° 262° (W) 02:10:23 .
nSIGHT-1 21 Nov 02:07:56 02:11:10 81° 20° (NNE) 02:14:21 .
AO-7 21 Nov 02:28:17 02:34:03 20° 88° (E) 02:39:47 .
DUCHIFAT 1 21 Nov 02:31:57 02:32:34 10° 305° (NW) 02:33:11 145.980
BEESAT 21 Nov 02:42:15 02:47:02 80° 73° (ENE) 02:51:49 436.000
Oscar 19 21 Nov 02:46:03 02:51:02 51° 292° (WNW) 02:56:01 437.125/150
SO-50 21 Nov 02:46:38 02:47:52 11° 1° (N) 02:49:06 436.795
ISS 21 Nov 02:50:00 02:53:15 67° 205° (SSW) 02:56:29 437.550
BEESAT 3 21 Nov 02:50:11 02:53:39 29° 118° (ESE) 02:57:08 437.485
ITUPSAT 1 21 Nov 02:51:32 02:56:20 87° 254° (WSW) 03:01:09 437.325
ITAMSAT 1 21 Nov 02:58:56 03:02:18 17° 89° (E) 03:05:39 435.822/435.867
PCSat 21 Nov 02:59:37 03:03:59 24° 325° (NW) 03:08:22 145.827
M-CUBED/EXP-1 PRIME 21 Nov 03:05:33 03:09:55 48° 105° (ESE) 03:14:24 437.505
Gurwin Techsat 1B 21 Nov 03:06:34 03:11:42 49° 292° (WNW) 03:16:47 435.225
RS-15 21 Nov 03:08:39 03:20:45 74° 46° (NE) 03:32:09 29.354- 29.394
MOZHAYETS 4 21 Nov 03:10:05 03:14:29 46° 261° (W) 03:18:53
CUBESAT XI-V 21 Nov 03:19:47 03:24:17 58° 71° (ENE) 03:28:51 437.345
KKS-1 21 Nov 03:30:11 03:33:38 22° 61° (ENE) 03:37:05 437.445
nSIGHT-1 21 Nov 03:44:31 03:47:08 23° 218° (SW) 03:49:43 .
DOVE 4 21 Nov 03:52:28 03:53:39 11° 82° (E) 03:54:49 437.250
STARS 21 Nov 03:56:32 03:59:29 18° 59° (ENE) 04:02:27 437.465
BEESAT 2 21 Nov 03:59:50 04:03:39 43° 121° (ESE) 04:07:31 435.950
AO-7 21 Nov 04:19:40 04:28:04 82° 109° (ESE) 04:36:27 .
BEESAT 21 Nov 04:22:52 04:25:24 14° 272° (W) 04:27:56 436.000
SO-50 21 Nov 04:26:56 04:30:08 18° 26° (NNE) 04:33:23 436.795
BEESAT 3 21 Nov 04:27:18 04:31:05 39° 317° (NW) 04:34:53 437.485
ISS 21 Nov 04:27:29 04:29:14 14° 223° (SW) 04:31:00 437.550
ITUPSAT 1 21 Nov 04:33:07 04:34:52 12° 273° (W) 04:36:38 437.325
AO-85 21 Nov 04:36:56 04:40:35 39° 120° (ESE) 04:44:25 145.980
ITAMSAT 1 21 Nov 04:37:07 04:42:22 76° 288° (WNW) 04:47:32 435.822/435.867
M-CUBED/EXP-1 PRIME 21 Nov 04:40:22 04:44:03 26° 302° (WNW) 04:47:50 437.505
YUBILEINY 21 Nov 04:41:35 04:48:48 30° 80° (E) 04:56:04 435.215
PCSat 21 Nov 04:47:39 04:49:27 11° 351° (N) 04:51:16 145.827
CUBESAT XI-V 21 Nov 04:58:52 05:02:02 18° 270° (W) 05:05:16 437.345
KKS-1 21 Nov 05:05:32 05:09:53 50° 260° (W) 05:14:16 437.445
RS-15 21 Nov 05:21:50 05:32:24 41° 252° (WSW) 05:42:29 29.354- 29.394
DOVE 4 21 Nov 05:27:02 05:32:19 72° 102° (ESE) 05:37:19 437.250
STARS 21 Nov 05:30:58 05:35:22 64° 258° (WSW) 05:39:48 437.465
KAITUO 1B 21 Nov 05:34:03 05:35:35 12° 89° (E) 05:37:08 145.475/437.950
BEESAT 2 21 Nov 05:37:56 05:41:30 29° 321° (NW) 05:45:07 435.950
STRAND 1 21 Nov 05:40:53 05:45:03 25° 61° (ENE) 05:49:12 437.568
XW-2D 21 Nov 05:46:33 05:49:38 23° 94° (E) 05:52:43 145.860 - 145.880
XW-2B 21 Nov 06:01:07 06:04:33 31° 96° (E) 06:07:58 145.730 - 145.750
CUTE-I 21 Nov 06:05:56 06:10:45 32° 95° (E) 06:15:31 437.470
SO-50 21 Nov 06:06:52 06:11:28 64° 48° (NE) 06:16:08 436.795
BEESAT 3 21 Nov 06:08:08 06:09:40 12° 339° (NNW) 06:11:13 437.485
AO-7 21 Nov 06:13:09 06:20:04 31° 311° (NW) 06:27:01 .
AO-85 21 Nov 06:17:31 06:21:04 30° 322° (NW) 06:24:49 145.980
NUDT-PHONESAT 21 Nov 06:17:59 06:21:24 34° 97° (E) 06:24:48 437.300
ITAMSAT 1 21 Nov 06:18:19 06:20:58 14° 308° (NW) 06:23:37 435.822/435.867
CUTE 1.7 + AOD 2 21 Nov 06:21:53 06:24:29 16° 89° (E) 06:27:05 437.475
XW-2C 21 Nov 06:26:27 06:30:14 62° 101° (E) 06:34:02 145.795 - 145.815
LilacSat-2 21 Nov 06:27:53 06:31:43 70° 102° (ESE) 06:35:33 437.200
FO-29 21 Nov 06:31:12 06:36:51 28° 54° (NE) 06:42:57 435.910
PCSat 21 Nov 06:32:40 06:35:23 14° 18° (NNE) 06:38:06 145.827
YUBILEINY 21 Nov 06:36:08 06:44:52 71° 283° (WNW) 06:53:44 435.215
XW-2F 21 Nov 06:37:34 06:41:21 78° 100° (E) 06:45:10 145.980 - 146.000
HO-68 21 Nov 06:43:11 06:49:33 33° 94° (E) 06:55:53 435.675
SEEDS 21 Nov 06:52:46 06:55:56 20° 92° (E) 06:59:04 437.485
AAUSAT CUBESAT 2 21 Nov 07:02:14 07:03:35 11° 87° (E) 07:04:55 437.432
DOVE 4 21 Nov 07:05:39 07:09:23 20° 301° (WNW) 07:13:01 437.250
KAITUO 1B 21 Nov 07:06:14 07:09:58 63° 286° (WNW) 07:13:41 145.475/437.950
CUBEBUG 2 21 Nov 07:13:06 07:16:46 29° 95° (E) 07:20:23 437.445
STRAND 1 21 Nov 07:18:52 07:23:54 54° 260° (W) 07:28:59 437.568
BEESAT 2 21 Nov 07:19:47 07:20:31 10° 344° (NNW) 07:21:15 435.950
XW-2D 21 Nov 07:20:26 07:23:51 32° 291° (WNW) 07:27:16 145.860 - 145.880
XW-2B 21 Nov 07:35:30 07:38:36 24° 294° (WNW) 07:41:42 145.730 - 145.750
Oscar 11 21 Nov 07:36:18 07:36:57 10° 86° (E) 07:37:36 .
CUTE-I 21 Nov 07:45:51 07:50:54 42° 294° (WNW) 07:55:54 437.470
XW-2A 21 Nov 07:46:05 07:49:08 31° 97° (E) 07:52:10 145.665 - 145.685
SO-50 21 Nov 07:48:03 07:51:32 21° 246° (WSW) 07:55:03 436.795
NUDT-PHONESAT 21 Nov 07:52:12 07:55:04 21° 295° (WNW) 07:57:57 437.300
CUTE 1.7 + AOD 2 21 Nov 07:56:29 08:00:42 61° 287° (WNW) 08:04:56 437.475
AO-85 21 Nov 08:01:29 08:02:51 11° 346° (NNW) 08:04:14 145.980
ZACube-1 21 Nov 08:01:46 08:05:24 29° 95° (E) 08:09:03 437.345
XW-2C 21 Nov 08:01:58 08:03:58 14° 299° (WNW) 08:05:58 145.795 - 145.815
LilacSat-2 21 Nov 08:03:42 08:05:29 13° 300° (WNW) 08:07:16 437.200
AO-7 21 Nov 08:08:38 08:10:11 11° 336° (NNW) 08:11:45 .
UWE-3 21 Nov 08:10:24 08:14:33 66° 101° (ESE) 08:18:40 435.000/436.395/437.385
XW-2F 21 Nov 08:13:34 08:14:54 12° 301° (WNW) 08:16:15 145.980 - 146.000
FO-29 21 Nov 08:14:21 08:21:05 79° 256° (WSW) 08:28:41 435.910
PCSat 21 Nov 08:15:27 08:20:26 35° 42° (NE) 08:25:24 145.827
PRISM 21 Nov 08:25:16 08:27:08 13° 57° (ENE) 08:28:59 437.425
SEEDS 21 Nov 08:27:46 08:31:50 46° 290° (WNW) 08:35:53 437.485
HO-68 21 Nov 08:30:37 08:37:40 59° 295° (WNW) 08:44:40 435.675
AAUSAT CUBESAT 2 21 Nov 08:35:23 08:39:36 81° 283° (WNW) 08:43:47 437.432
YUBILEINY 21 Nov 08:37:41 08:43:35 19° 308° (NW) 08:49:32 435.215
CUBEBUG 2 21 Nov 08:49:42 08:53:24 30° 293° (WNW) 08:57:01 437.445
AO-73 21 Nov 08:52:41 08:56:50 87° 97° (E) 09:01:00 145.935
UNISAT 6 21 Nov 08:53:08 08:57:36 57° 72° (ENE) 09:01:59 437.425
TIGRISAT 21 Nov 08:57:34 09:02:02 58° 72° (ENE) 09:06:25 435.000
Oscar 11 21 Nov 09:09:24 09:13:45 88° 110° (ESE) 09:18:05 .
DELFI C3 21 Nov 09:09:28 09:12:31 20° 92° (E) 09:15:32 145.870
XW-2A 21 Nov 09:19:13 09:21:40 19° 294° (WNW) 09:24:06 145.665 - 145.685
BEESAT 3 21 Nov 09:25:58 09:28:18 15° 27° (NNE) 09:30:37 437.485
ZACube-1 21 Nov 09:38:03 09:41:41 30° 293° (WNW) 09:45:18 437.345
AO-85 21 Nov 09:44:12 09:45:16 11° 12° (NNE) 09:46:20 145.980
UWE-3 21 Nov 09:48:07 09:50:31 15° 300° (WNW) 09:52:56 435.000/436.395/437.385
PRISM 21 Nov 09:57:38 10:01:46 85° 257° (WSW) 10:05:57 437.425
PCSat 21 Nov 09:58:48 10:04:02 50° 243° (WSW) 10:09:14 145.827
FO-29 21 Nov 10:03:13 10:07:28 17° 279° (W) 10:12:00 435.910
AAUSAT CUBESAT 2 21 Nov 10:13:11 10:14:19 11° 303° (WNW) 10:15:27 437.432
DUCHIFAT 1 21 Nov 10:14:48 10:17:25 16° 60° (ENE) 10:20:02 145.980
EO-88 21 Nov 10:16:52 10:20:28 54° 100° (E) 10:24:03 145.990 - 145.960
Max Valier Satellite 21 Nov 10:17:55 10:21:37 80° 105° (ESE) 10:25:16 145.860
HO-68 21 Nov 10:19:57 10:24:00 16° 316° (NW) 10:28:04 435.675
EO-79 21 Nov 10:21:00 10:24:19 23° 64° (ENE) 10:27:39 145.935-145.965
NANOSAT C BR1 21 Nov 10:24:27 10:27:43 22° 63° (ENE) 10:30:59 145.865
AIST 2D 21 Nov 10:27:32 10:30:56 59° 74° (ENE) 10:34:22 435.315
AO-73 21 Nov 10:30:52 10:32:28 12° 302° (WNW) 10:34:03 145.935
UNISAT 6 21 Nov 10:31:29 10:34:38 18° 269° (W) 10:37:45 437.425
POLYITAN 1 21 Nov 10:35:45 10:39:29 31° 67° (ENE) 10:43:13 437.675
TIGRISAT 21 Nov 10:35:57 10:39:03 18° 269° (W) 10:42:08 435.000
BEESAT 2 21 Nov 10:36:30 10:39:27 19° 32° (NNE) 10:42:23 435.950
LO-87 21 Nov 10:43:01 10:45:09 15° 91° (E) 10:47:15 145.935 - 145.965
DELFI C3 21 Nov 10:43:39 10:47:25 40° 290° (WNW) 10:51:10 145.870
Oscar 11 21 Nov 10:47:17 10:49:14 13° 303° (WNW) 10:51:11 .
QB50P2 21 Nov 10:58:32 11:02:41 56° 72° (ENE) 11:06:51 145.880/145.840
BEESAT 3 21 Nov 11:02:40 11:06:37 62° 48° (NE) 11:10:30 437.485
BUGSAT 1 21 Nov 11:08:15 11:10:46 16° 60° (ENE) 11:13:16 437.445
Gurwin Techsat 1B 21 Nov 11:15:55 11:17:58 12° 51° (NE) 11:20:00 435.225
AO-85 21 Nov 11:23:27 11:27:11 25° 35° (NE) 11:31:09 145.980
SPROUT 21 Nov 11:40:44 11:42:50 13° 88° (E) 11:44:54 437.525
AO-7 21 Nov 11:44:14 11:48:03 14° 32° (NNE) 11:51:52 .
DUCHIFAT 1 21 Nov 11:48:26 11:52:37 64° 258° (WSW) 11:56:49 145.980
EO-88 21 Nov 11:51:39 11:53:42 15° 298° (WNW) 11:55:45 145.990 - 145.960
Max Valier Satellite 21 Nov 11:53:59 11:54:50 11° 301° (WNW) 11:55:42 145.860
ESTCUBE 1 21 Nov 11:55:31 12:00:04 69° 102° (ESE) 12:04:35 437.505/2401.250
EO-79 21 Nov 11:55:48 11:59:51 42° 262° (W) 12:03:54 145.935-145.965
NANOSAT C BR1 21 Nov 11:59:08 12:03:11 43° 261° (W) 12:07:14 145.865
AIST 2D 21 Nov 12:03:38 12:04:29 11° 272° (W) 12:05:21 435.315
POLYITAN 1 21 Nov 12:11:29 12:15:14 30° 264° (W) 12:19:00 437.675
BEESAT 2 21 Nov 12:13:39 12:17:44 88° 233° (SW) 12:21:44 435.950
LO-87 21 Nov 12:15:23 12:18:47 43° 289° (WNW) 12:22:08 145.935 - 145.965
VELOX 1 21 Nov 12:17:18 12:20:41 21° 92° (E) 12:24:03 145.980
M-CUBED/EXP-1 PRIME 21 Nov 12:22:53 12:24:46 13° 51° (NE) 12:26:43 437.505
Oscar 19 21 Nov 12:27:36 12:32:34 53° 69° (ENE) 12:37:33 437.125/150
FALCONSAT 3 21 Nov 12:33:06 12:33:46 10° 184° (S) 12:34:27 435.103
QB50P2 21 Nov 12:36:04 12:38:49 17° 270° (W) 12:41:34 145.880/145.840
BEESAT 3 21 Nov 12:41:11 12:43:43 17° 247° (WSW) 12:46:14 437.485
BUGSAT 1 21 Nov 12:41:28 12:45:39 66° 258° (WSW) 12:49:49 437.445
Gurwin Techsat 1B 21 Nov 12:51:39 12:56:54 63° 70° (ENE) 13:02:10 435.225
AO-85 21 Nov 13:03:25 13:08:02 74° 234° (SW) 13:12:59 145.980
DX 1 21 Nov 13:03:45 13:06:18 15° 90° (E) 13:08:51 434.975-435.025
SPROUT 21 Nov 13:14:57 13:19:12 70° 287° (WNW) 13:23:25 437.525
AO-7 21 Nov 13:31:05 13:38:41 42° 56° (NE) 13:46:19 .
ESTCUBE 1 21 Nov 13:33:26 13:36:22 17° 301° (WNW) 13:39:18 437.505/2401.250
UKube-1 21 Nov 13:45:16 13:48:49 24° 94° (E) 13:52:21 .
O/OREOS (USA 219) 21 Nov 13:51:06 13:55:40 67° 113° (ESE) 14:00:15 437.305
VELOX 1 21 Nov 13:53:04 13:57:23 48° 290° (WNW) 14:01:40 145.980
BEESAT 2 21 Nov 13:53:34 13:54:46 11° 251° (WSW) 13:55:58 435.950
M-CUBED/EXP-1 PRIME 21 Nov 13:54:56 13:58:32 76° 251° (WSW) 14:02:29 437.505
50 SAT 21 Nov 14:04:08 14:07:22 71° 104° (ESE) 14:10:34 437.505
Oscar 19 21 Nov 14:08:07 14:12:12 24° 268° (W) 14:16:18 437.125/150
ITAMSAT 1 21 Nov 14:20:03 14:24:53 39° 65° (ENE) 14:29:45 435.822/435.867
Gurwin Techsat 1B 21 Nov 14:33:18 14:37:18 21° 269° (W) 14:41:18 435.225
DX 1 21 Nov 14:38:34 14:42:56 66° 288° (WNW) 14:47:16 434.975-435.025
BEESAT 21 Nov 14:39:41 14:42:24 15° 89° (E) 14:45:06 436.000
YUBILEINY 21 Nov 14:45:32 14:51:39 20° 53° (NE) 14:57:44 435.215
AO-85 21 Nov 14:45:58 14:47:48 12° 251° (WSW) 14:49:40 145.980
ITUPSAT 1 21 Nov 14:48:58 14:52:12 18° 91° (E) 14:55:25 437.325
NO-84 21 Nov 14:59:39 15:02:25 20° 130° (SE) 15:05:19 435.350 FM
DOVE 4 21 Nov 14:59:58 15:03:25 19° 58° (ENE) 15:06:58 437.250
MOZHAYETS 4 21 Nov 15:01:00 15:05:03 30° 95° (E) 15:09:03
CUBESAT XI-V 21 Nov 15:14:34 15:15:53 11° 85° (E) 15:17:12 437.345
UKube-1 21 Nov 15:20:55 15:24:58 39° 292° (WNW) 15:28:59 .
AO-7 21 Nov 15:23:09 15:31:15 57° 257° (WSW) 15:39:26 .
O/OREOS (USA 219) 21 Nov 15:32:05 15:35:32 20° 313° (NW) 15:39:01 437.305
HO-68 21 Nov 15:35:20 15:36:37 11° 36° (NE) 15:37:55 435.675
CUTE-I 21 Nov 15:54:44 15:57:34 15° 53° (NE) 16:00:24 437.470
ITAMSAT 1 21 Nov 15:59:41 16:04:24 34° 264° (W) 16:09:09 435.822/435.867
BEESAT 21 Nov 16:15:57 16:20:44 76° 287° (WNW) 16:25:28 436.000
KAITUO 1B 21 Nov 16:18:32 16:19:32 11° 59° (ENE) 16:20:33 145.475/437.950
ITUPSAT 1 21 Nov 16:25:44 16:30:28 63° 289° (WNW) 16:35:09 437.325
XW-2D 21 Nov 16:31:36 16:34:24 20° 64° (ENE) 16:37:12 145.860 - 145.880
DOVE 4 21 Nov 16:35:21 16:40:26 81° 258° (WSW) 16:45:45 437.250
NO-84 21 Nov 16:35:28 16:39:17 84° 330° (NNW) 16:43:25 435.350 FM
MOZHAYETS 4 21 Nov 16:38:05 16:42:13 35° 293° (WNW) 16:46:22
YUBILEINY 21 Nov 16:41:23 16:50:17 73° 78° (ENE) 16:59:07 435.215
XW-2B 21 Nov 16:45:58 16:49:09 27° 67° (ENE) 16:52:20 145.730 - 145.750
CUBESAT XI-V 21 Nov 16:49:16 16:53:59 84° 103° (ESE) 16:58:41 437.345
KKS-1 21 Nov 16:52:48 16:56:23 23° 93° (E) 16:59:55 437.445
NUDT-PHONESAT 21 Nov 17:00:35 17:03:41 27° 67° (ENE) 17:06:49 437.300
XW-2C 21 Nov 17:11:02 17:14:39 51° 72° (ENE) 17:18:18 145.795 - 145.815
LilacSat-2 21 Nov 17:13:04 17:16:46 58° 73° (ENE) 17:20:29 437.200
HO-68 21 Nov 17:15:55 17:22:23 38° 59° (ENE) 17:28:54 435.675
STARS 21 Nov 17:17:12 17:20:08 17° 91° (E) 17:23:03 437.465
CUTE 1.7 + AOD 2 21 Nov 17:18:12 17:21:08 19° 62° (ENE) 17:24:05 437.475
XW-2F 21 Nov 17:21:34 17:25:14 63° 74° (ENE) 17:28:57 145.980 - 146.000
AO-7 21 Nov 17:23:28 17:25:56 11° 279° (W) 17:28:25 .
CUTE-I 21 Nov 17:31:23 17:36:44 75° 73° (ENE) 17:42:08 437.470
UWE-3 21 Nov 17:37:32 17:39:09 12° 57° (ENE) 17:40:45 435.000/436.395/437.385
RS-15 21 Nov 17:38:07 17:47:58 30° 102° (ESE) 17:57:44 29.354- 29.394
SEEDS 21 Nov 17:48:01 17:51:18 23° 64° (ENE) 17:54:36 437.485
KAITUO 1B 21 Nov 17:49:15 17:52:56 79° 258° (WSW) 17:56:39 145.475/437.950
BEESAT 21 Nov 17:55:43 17:57:41 13° 306° (NW) 17:59:40 436.000
AAUSAT CUBESAT 2 21 Nov 17:55:49 17:57:53 14° 59° (ENE) 17:59:57 437.432
XW-2D 21 Nov 18:04:52 18:08:21 37° 263° (W) 18:11:52 145.860 - 145.880
ITUPSAT 1 21 Nov 18:06:19 18:07:21 11° 308° (NW) 18:08:24 437.325
NO-84 21 Nov 18:13:20 18:17:03 36° 351° (N) 18:20:58 435.350 FM
CUBEBUG 2 21 Nov 18:14:14 18:18:29 41° 70° (ENE) 18:22:39 437.445
DOVE 4 21 Nov 18:16:53 18:18:58 12° 277° (W) 18:21:06 437.250
AO-73 21 Nov 18:17:49 18:20:00 14° 59° (ENE) 18:22:10 145.935
XW-2B 21 Nov 18:20:04 18:23:16 27° 265° (W) 18:26:30 145.730 - 145.750
XW-2A 21 Nov 18:21:03 18:23:33 20° 66° (ENE) 18:26:04 145.665 - 145.685
CUBESAT XI-V 21 Nov 18:28:03 18:30:44 15° 302° (WNW) 18:33:23 437.345
KKS-1 21 Nov 18:28:52 18:33:08 44° 291° (WNW) 18:37:20 437.445
Oscar 11 21 Nov 18:33:55 18:36:14 14° 59° (ENE) 18:38:34 .
NUDT-PHONESAT 21 Nov 18:34:27 18:37:30 25° 265° (W) 18:40:36 437.300
YUBILEINY 21 Nov 18:39:05 18:46:18 29° 280° (W) 18:53:31 435.215
XW-2C 21 Nov 18:47:03 18:49:08 14° 270° (W) 18:51:15 145.795 - 145.815
LilacSat-2 21 Nov 18:49:38 18:51:25 13° 271° (W) 18:53:12 437.200
CUTE 1.7 + AOD 2 21 Nov 18:52:30 18:56:36 53° 260° (W) 19:00:45 437.475
STARS 21 Nov 18:52:30 18:56:50 57° 289° (WNW) 19:01:08 437.465
XW-2F 21 Nov 18:58:22 18:59:46 12° 271° (W) 19:01:11 145.980 - 146.000
ZACube-1 21 Nov 19:00:53 19:04:51 37° 69° (ENE) 19:08:46 437.345
HO-68 21 Nov 19:02:54 19:09:55 55° 259° (W) 19:17:00 435.675
UWE-3 21 Nov 19:10:30 19:14:56 84° 78° (ENE) 19:19:17 435.000/436.395/437.385
CUTE-I 21 Nov 19:13:47 19:17:23 18° 271° (W) 19:21:00 437.470
FO-29 21 Nov 19:21:03 19:26:00 18° 82° (E) 19:30:49 435.910
SEEDS 21 Nov 19:22:49 19:26:46 41° 263° (W) 19:30:45 437.485
STRAND 1 21 Nov 19:25:20 19:30:07 38° 97° (E) 19:34:51 437.568
AAUSAT CUBESAT 2 21 Nov 19:28:37 19:32:45 77° 257° (WSW) 19:36:56 437.432
RS-15 21 Nov 19:46:34 19:58:57 88° 126° (SE) 20:11:13 29.354- 29.394
NO-84 21 Nov 19:51:13 19:55:07 38° 12° (NNE) 19:59:08 435.350 FM
AO-73 21 Nov 19:51:25 19:55:42 77° 257° (WSW) 19:59:56 145.935
CUBEBUG 2 21 Nov 19:51:28 19:55:14 25° 266° (W) 19:58:56 437.445
XW-2A 21 Nov 19:53:12 19:56:07 28° 264° (W) 19:59:03 145.665 - 145.685
DELFI C3 21 Nov 19:58:22 20:01:20 21° 64° (ENE) 20:04:20 145.870
Oscar 11 21 Nov 20:07:31 20:11:48 77° 256° (WSW) 20:16:08 .
nSIGHT-1 21 Nov 20:25:17 20:26:43 12° 136° (SE) 20:28:08 .
ZACube-1 21 Nov 20:37:41 20:41:14 24° 266° (W) 20:44:43 437.345
UWE-3 21 Nov 20:50:23 20:51:57 12° 273° (W) 20:53:31 435.000/436.395/437.385
EO-88 21 Nov 20:57:47 21:01:11 40° 71° (ENE) 21:04:37 145.990 - 145.960
Max Valier Satellite 21 Nov 20:59:54 21:03:30 60° 74° (ENE) 21:07:07 145.860
STRAND 1 21 Nov 21:04:39 21:09:14 34° 296° (WNW) 21:13:47 437.568
ISS 21 Nov 21:08:44 21:11:24 23° 142° (SE) 21:14:03 437.550
